DW4070 Weather Reports


time (UTC)temp
F
wind
direction
speed
knots
gust
knots
rain 1hr
in
rain 24hr
in
rain mn
in
humidity
%
barometer
mb
20260504050024 38 331 0.0 0.0 0.00 0.00 0.00 85 1014.1
20260504044524 38 331 0.0 0.0 0.00 0.00 0.00 83 1014.0
20260504043030 38 331 0.0 0.0 0.00 0.00 0.00 83 1014.0
20260504041521 39 331 0.0 0.0 0.00 0.00 0.00 82 1013.8
20260504040018 39 331 0.0 0.0 0.00 0.00 0.00 81 1013.8
20260504034513 40 331 0.0 0.0 0.00 0.00 0.00 79 1013.9
20260504033014 40 331 0.0 0.0 0.00 0.00 0.00 78 1013.8
20260504031510 41 331 0.0 0.0 0.00 0.00 0.00 76 1013.9
20260504030012 41 331 0.0 0.0 0.00 0.00 0.00 74 1013.7
20260504024505 42 331 0.0 0.0 0.00 0.00 0.00 73 1013.8
20260504023003 42 331 0.0 0.0 0.00 0.00 0.00 70 1013.8
20260504021501 43 331 0.0 0.0 0.00 0.00 0.00 68 1013.7
20260504020100 44 331 0.0 0.0 0.00 0.00 0.00 67 1013.7
20260504014559 45 331 0.0 0.0 0.00 0.00 0.00 64 1013.6
20260504013116 46 331 0.0 0.0 0.00 0.00 0.00 59 1013.5
20260504011557 47 331 0.0 0.0 0.00 0.00 0.00 55 1013.4
20260504010101 48 331 0.0 0.0 0.00 0.00 0.00 51 1013.1
20260504004606 49 331 0.0 0.0 0.00 0.00 0.00 50 1012.9
20260504003053 50 331 0.0 0.0 0.00 0.00 0.00 50 1012.7
20260504001552 52 331 0.0 0.0 0.00 0.00 0.00 50 1012.4
20260504000056 53 331 0.0 0.0 0.00 0.00 0.00 52 1012.3
20260503234551 54 331 0.0 0.0 0.00 0.00 0.00 52 1012.0
20260503233052 56 331 0.0 1.7 0.00 0.00 0.00 35 1011.8
20260503231549 56 57 0.0 0.9 0.00 0.00 0.00 36 1011.7
20260503230055 56 92 0.0 1.7 0.00 0.00 0.00 35 1011.5
20260503224549 56 116 0.0 2.6 0.00 0.00 0.00 31 1011.4
20260503223049 57 115 0.0 4.3 0.00 0.00 0.00 32 1011.4
20260503221546 57 11 0.9 4.3 0.00 0.00 0.00 33 1011.4
20260503220047 57 284 0.0 7.8 0.00 0.00 0.00 31 1011.3
20260503214547 58 285 0.9 6.1 0.00 0.00 0.00 32 1011.3
20260503213046 57 265 0.9 5.2 0.00 0.00 0.00 36 1011.1
20260503211544 57 5 0.9 5.2 0.00 0.00 0.00 30 1011.2
20260503210044 57 274 1.7 16.5 0.00 0.00 0.00 33 1011.3
20260503204542 57 69 0.9 3.5 0.00 0.00 0.00 32 1011.2
20260503203049 57 61 0.9 4.3 0.00 0.00 0.00 33 1011.3
20260503201543 58 22 0.9 7.0 0.00 0.00 0.00 34 1011.3
20260503200037 57 33 1.7 13.0 0.00 0.00 0.00 33 1011.1
20260503194534 56 27 0.9 4.3 0.00 0.00 0.00 36 1011.5
20260503193033 57 69 0.9 7.8 0.00 0.00 0.00 40 1011.6
20260503191537 56 76 1.7 5.2 0.00 0.00 0.00 38 1011.7
20260503190035 56 355 1.7 5.2 0.00 0.00 0.00 36 1011.9
20260503184529 56 61 0.9 8.7 0.00 0.00 0.00 42 1012.1
20260503183029 55 282 0.9 9.6 0.00 0.00 0.00 36 1012.1
20260503181528 55 46 0.9 7.8 0.00 0.00 0.00 37 1012.2
20260503180040 55 266 0.0 8.7 0.00 0.00 0.00 41 1012.0
20260503174528 54 286 1.7 7.8 0.00 0.00 0.00 37 1012.1
20260503173027 56 40 2.6 7.0 0.00 0.00 0.00 35 1012.0
20260503171526 55 267 0.9 6.1 0.00 0.00 0.00 37 1012.2
20260503081537 43 26 0.0 4.3 0.00 0.05 0.00 62 1012.0
20260503071530 45 13 0.0 1.7 0.00 0.05 0.00 59 1011.9
20260503054518 47 265 0.0 1.7 0.00 0.05 0.00 56 1012.3
20260503053014 47 265 0.0 2.6 0.00 0.05 0.00 56 1012.5